Content
SEND FEEDBACK

Daily
Averages
Monthly
Summary
United Kingdom

YORK, ENGLAND


Home > Europe > United Kingdom > England
Elevation: 27 feet     Latitude: 53 50N     Longitude: 001 11W

WEATHER
 
SELECT A DAY
Number of Records: 48,838;   Date Range: 6/27/01 - 12/19/13
 
SHARE

PRINT THIS DATA

[ ← Previous Day ]
WEATHER ALMANAC - AUGUST 14, 2013
[ Next Day → ]
[ °C ]   °F
Weather ElementAverageHighLow
Temperature62.5 °F73.4 °F (2:50 pm)51 °F (3:50 am)
Dewpoint52.1 °F61 °F (9:50 pm)46.4 °F (1:50 am)
Humidity70.2 %95 % (6:50 am)34 % (12:50 pm)
Barometer30.12 in30.18 in (1:50 am)30.04 in (10:50 pm)
Wind Speed7.2 mph13.8 mph (2:50 pm)
Weather ElementAverage
Visibility8.2 mi
Wind DirectionS (184.8 °)

Weather ElementTotal
Precipitation---
Heating Degree Days2.8 (Base 65)
Growing Degree Days12.2 (Base 50)
Averaged from 31 records on August 14, 2013
WEATHER CONDITIONS BREAKOUT
WIND DIRECTION BREAKOUT
WEATHER BY HOUR - AUGUST 14, 2013
[ °C ]   °F
Local TimeTemperatureDewpointHumidityBarometerVisibilityWind DirectionWind SpeedGust SpeedPrecipitationEventsConditions
12:50 AM55.4 °F50.0 °F82 %30.15 in6.2 miWSW (240°)2.3 mphPartly Cloudy
1:50 AM51.8 °F46.4 °F82 %30.18 in6.2 miSSE (150°)2.3 mphScattered Clouds
2:50 AM51.8 °F48.2 °F88 %30.15 in6.2 miSW (220°)1.2 mphMostly Cloudy
3:50 AM51.0 °F49.0 °F89 %30.17 in14.0 miSSE (160°)1.2 mphScattered Clouds
3:50 AM51.8 °F48.2 °F88 %30.15 in6.2 miSSE (160°)1.2 mphMostly Cloudy
4:50 AM51.8 °F50.0 °F94 %30.15 in6.2 miSouth (190°)2.3 mphOvercast
5:50 AM51.8 °F50.0 °F94 %30.15 in6.2 miSouth (190°)4.6 mphPartly Cloudy
6:50 AM51.8 °F50.0 °F94 %30.15 in6.2 miSE (140°)3.5 mphScattered Clouds
6:50 AM51.0 °F50.0 °F95 %30.18 in9.0 miSE (140°)3.5 mph
7:50 AM57.2 °F53.6 °F88 %30.18 in6.2 miSW (220°)4.6 mphMostly Cloudy
8:50 AM62.6 °F51.8 °F68 %30.15 in6.2 miSSE (160°)3.5 mphScattered Clouds
9:50 AM64.0 °F53.0 °F59 %30.17 in16.0 miSouth (190°)6.9 mphScattered Clouds
9:50 AM64.4 °F53.6 °F68 %30.15 in6.2 miSouth (190°)6.9 mphScattered Clouds
10:50 AM68.0 °F51.8 °F56 %30.15 in6.2 miSSW (210°)8.1 mphMostly Cloudy
11:50 AM69.8 °F50.0 °F49 %30.12 in6.2 miSouth (170°)10.4 mphMostly Cloudy
12:50 PM69.8 °F48.2 °F46 %30.12 in6.2 miSouth (180°)12.7 mphMostly Cloudy
12:50 PM70.0 °F48.0 °F34 %30.14 in25.0 miSouth (180°)12.7 mphPartly Cloudy
1:50 PM71.6 °F48.2 °F43 %30.12 inSSW (200°)11.5 mphClear
2:50 PM73.4 °F50.0 °F44 %30.09 inSSW (210°)13.8 mphClear
3:50 PM72.0 °F50.0 °F34 %30.10 in22.0 miSouth (180°)10.4 mphOvercast
3:50 PM71.6 °F50.0 °F46 %30.09 inSouth (180°)10.4 mphClear
4:50 PM69.8 °F50.0 °F49 %30.09 in6.2 miSouth (190°)11.5 mphOvercast
5:50 PM69.8 °F51.8 °F53 %30.06 in6.2 miSSW (200°)12.7 mphMostly Cloudy
6:50 PM68.0 °F53.6 °F60 %30.06 in6.2 miSSW (200°)10.4 mphMostly Cloudy
6:50 PM68.0 °F54.0 °F51 %30.07 in16.0 miSSW (200°)10.4 mphMostly Cloudy
7:50 PM66.2 °F55.4 °F68 %30.06 in6.2 miSouth (190°)9.2 mphMostly Cloudy
8:50 PM64.4 °F57.2 °F77 %30.06 in6.2 miSSW (210°)12.7 mphMostly Cloudy
9:50 PM62.0 °F61.0 °F94 %30.07 in1.0 miSouth (170°)4.6 mphRainRain Showers
9:50 PM62.6 °F60.8 °F94 %30.06 in1.4 miSouth (170°)4.6 mphRainRain Showers
10:50 PM62.6 °F60.8 °F94 %30.04 in6.2 miSSE (160°)6.9 mphMostly Cloudy
11:50 PM62.6 °F60.8 °F94 %30.04 in6.2 miSouth (180°)6.9 mphMostly Cloudy
Hourly data recorded from EGXG, located miles away from York, England







STORIES FROM OUR PARTNERS